Wind_Speed
32 32 32 31 31 30 31 31 32 31 31 31 31 31 31 30 29 28 27 27 26 27 28 28 27 27 27 29 31 32 33 34 36 38 40 40 41 42 43 45 47 48 47 47
32 32 32 32 30 31 31 30 31 30 30 31 31 31 30 29 28 28 28 27 26 26 27 27 28 28 28 29 31 33 34 34 35 36 39 39 40 40 41 43 45 46 47 48
33 32 31 30 30 30 30 30 30 31 31 31 31 31 30 28 27 27 28 28 28 27 27 28 28 29 30 31 31 32 34 35 35 36 37 38 39 39 39 41 42 43 45 46
33 32 31 30 30 30 31 31 32 32 31 30 31 30 30 29 28 27 27 27 27 28 28 28 28 29 30 31 32 32 33 34 34 35 36 37 38 39 39 39 40 42 44 45
31 31 32 30 31 31 31 31 31 31 31 30 30 30 29 29 28 27 27 27 28 28 28 29 29 29 30 30 31 31 33 34 34 35 37 37 38 39 39 39 40 41 42 44
31 32 32 31 31 31 31 31 30 30 30 29 29 29 28 28 28 27 26 27 27 27 28 28 28 28 29 29 30 31 32 33 34 34 36 37 38 39 39 40 40 41 42 43
31 32 32 32 31 31 31 31 30 30 30 29 29 28 28 27 27 26 26 26 26 27 28 28 29 29 30 30 30 31 30 31 32 33 34 36 37 37 39 40 40 41 42 43
32 32 32 31 31 31 31 31 31 30 29 29 28 27 27 27 26 26 26 26 26 26 27 28 29 30 30 30 30 31 31 31 32 33 34 35 36 37 37 38 39 40 42 43
31 31 30 30 31 31 30 30 30 29 28 28 27 27 26 26 26 25 25 26 26 26 26 27 28 29 29 30 30 30 30 31 32 32 33 34 35 36 36 38 39 40 41 42
30 29 29 29 30 30 30 30 29 29 28 28 27 27 26 26 26 26 25 26 26 27 26 27 27 28 28 28 29 29 30 31 31 32 32 34 35 36 37 37 39 40 41 41
31 30 29 29 30 30 29 29 29 29 28 28 27 26 26 26 26 26 25 26 26 26 26 26 27 27 28 28 29 30 30 31 31 32 32 33 34 35 36 37 38 38 39 40
31 30 31 29 29 30 29 29 29 29 28 28 27 26 26 26 26 26 26 26 26 26 26 26 27 27 27 28 29 29 30 31 32 33 33 33 34 34 36 36 37 37 38 39
30 30 30 30 30 30 30 30 29 29 28 27 27 27 27 26 26 26 26 27 27 27 26 26 27 27 28 29 29 29 30 31 31 31 32 32 33 34 35 36 37 37 37 38
30 30 30 30 30 30 30 30 29 29 28 28 28 27 27 27 27 26 27 27 27 27 27 27 27 27 28 28 28 29 29 29 30 30 30 31 32 32 33 34 34 35 36 37
29 29 29 30 30 30 30 29 29 28 28 28 28 28 27 27 26 27 27 28 27 27 27 27 27 27 27 27 28 28 28 28 28 29 29 29 30 31 31 32 32 32 33 34
28 28 28 28 29 29 28 28 28 28 28 27 28 28 28 28 27 27 27 27 27 27 27 28 28 28 27 28 27 27 27 27 28 28 28 29 29 30 30 30 31 31 32 33
26 26 26 27 27 27 27 27 27 27 27 27 27 27 28 28 28 27 28 28 27 27 27 27 27 28 27 27 27 27 27 27 28 28 28 28 28 29 30 30 30 31 31 32
26 26 26 26 26 26 27 27 27 27 26 26 26 26 26 26 27 27 27 27 27 27 26 26 26 27 27 27 27 27 27 27 28 28 28 28 28 28 29 29 30 30 31 32
26 26 26 26 26 25 25 25 25 25 26 26 26 25 26 26 26 26 26 26 26 26 26 26 26 26 27 27 27 27 27 28 28 28 28 28 28 28 29 29 29 29 29 30
26 26 26 25 25 25 25 25 25 24 24 25 25 25 25 25 25 25 25 26 26 26 25 26 26 27 28 28 28 28 28 28 28 28 28 28 28 28 28 28 28 28 29 29
24 25 25 25 25 25 25 25 25 25 24 24 24 24 24 25 25 25 25 25 25 25 25 25 26 27 28 28 29 29 28 28 28 28 28 28 28 28 28 28 28 28 28 28
24 25 25 25 25 25 25 25 24 24 24 24 24 25 25 25 25 25 25 25 25 25 26 26 26 27 27 27 27 27 28 28 28 28 28 27 27 27 27 27 28 28 28 29
25 25 25 25 25 25 25 24 24 24 25 25 25 25 25 25 25 24 24 25 25 25 25 25 25 26 26 26 25 25 25 25 25 26 26 26 26 26 26 27 27 27 27 28
25 25 25 25 25 25 24 24 25 25 25 25 25 25 24 24 24 24 24 24 24 24 24 24 24 24 24 24 24 24 23 23 23 23 24 24 24 24 25 26 26 26 27 27
26 26 26 26 25 25 25 25 26 25 25 25 24 24 23 23 23 24 23 23 23 24 24 23 23 23 23 23 23 22 22 23 23 23 23 23 23 24 24 24 25 25 25 25
26 26 26 26 25 25 25 25 25 25 24 24 23 23 23 23 22 22 22 23 23 22 22 22 22 22 22 22 22 22 22 22 22 22 22 22 23 23 23 23 24 24 24 25
26 26 26 26 25 25 25 25 25 25 24 23 23 23 23 22 22 22 23 23 22 22 22 22 22 21 21 21 21 21 21 21 21 22 22 22 22 23 23 23 24 24 24 24
Wind_Direction
296 295 295 294 295 294 292 292 291 292 291 294 295 297 295 293 290 286 285 284 282 281 279 277 274 272 272 269 264 261 259 258 257 252 249 249 248 247 245 243 243 245 246 246
294 294 294 293 295 294 294 292 291 291 290 292 293 295 295 292 289 286 283 281 281 280 279 277 275 272 273 272 268 264 261 259 257 253 249 249 249 248 246 244 244 245 247 247
294 294 294 294 295 295 295 293 293 293 292 292 292 293 293 291 288 284 283 280 280 280 280 279 277 275 274 273 270 267 262 260 258 254 251 251 249 248 247 247 246 246 247 247
295 294 293 295 296 296 296 295 294 294 293 292 292 292 291 290 290 285 282 279 278 279 278 278 277 276 275 274 271 269 265 261 259 257 254 253 251 250 249 250 249 247 248 248
296 295 294 295 297 297 297 297 297 295 294 293 292 291 290 288 288 286 283 280 278 278 278 277 277 276 276 276 273 270 267 263 261 259 256 255 253 251 251 251 250 249 249 249
294 294 296 298 297 297 296 297 298 297 296 295 294 292 291 289 287 285 284 283 280 278 277 277 277 277 277 277 277 274 270 267 264 262 260 257 256 254 253 253 252 252 252 253
294 294 295 297 297 296 296 297 296 296 297 296 295 294 294 292 289 287 285 284 282 280 279 278 278 278 277 278 277 276 274 272 268 266 263 260 258 257 256 255 255 255 256 257
296 295 295 295 295 294 295 294 294 295 296 296 295 294 294 293 290 288 286 285 284 283 281 279 279 278 278 277 277 276 275 274 271 267 264 262 261 260 259 258 258 258 258 259
298 297 297 295 293 293 294 294 293 293 294 295 294 293 295 294 291 290 288 286 285 285 282 280 279 279 278 277 276 275 273 272 271 269 266 263 262 261 261 260 260 260 260 260
296 296 294 293 292 292 293 292 291 291 293 294 293 293 293 293 291 290 289 289 287 286 285 282 280 279 278 277 276 275 273 273 272 272 270 267 265 262 262 263 262 262 261 260
294 294 293 292 292 291 291 290 289 289 291 292 292 292 291 290 290 290 289 289 289 288 286 284 281 279 279 278 278 276 274 273 273 272 272 270 267 265 264 263 263 263 262 261
295 294 293 292 292 290 289 289 288 287 286 288 290 289 290 290 290 289 290 289 288 287 286 285 283 281 279 279 279 278 276 274 273 273 272 270 267 266 264 264 264 264 263 262
294 294 294 293 291 290 289 287 286 285 284 285 287 288 289 289 289 289 290 291 289 287 285 284 283 281 281 280 280 280 279 277 275 274 272 270 268 267 266 265 265 264 263 261
295 295 295 294 292 291 290 287 285 284 283 284 286 286 287 288 289 289 291 291 290 288 285 283 282 282 281 281 281 281 281 279 277 275 273 271 270 268 267 267 266 264 262 261
298 297 297 295 294 293 291 289 286 285 284 284 284 285 285 286 287 288 290 289 288 287 285 283 282 282 281 281 281 281 281 280 279 278 276 273 271 269 267 266 266 265 262 261
300 298 298 297 296 294 293 291 288 287 287 286 285 285 284 285 286 288 288 288 287 287 286 285 283 282 281 281 280 280 281 281 280 279 278 276 274 271 269 267 267 266 264 262
303 301 300 300 298 296 295 294 292 290 288 288 286 285 285 285 286 287 288 288 287 287 287 285 284 283 283 282 281 281 281 280 280 279 278 276 274 272 270 269 267 267 266 265
305 303 302 302 302 300 297 296 294 291 290 288 287 287 288 287 287 287 288 289 289 288 287 286 285 284 283 283 281 281 282 281 280 279 278 277 275 273 271 270 269 268 268 268
307 305 304 304 305 304 302 300 298 294 292 290 288 288 289 289 289 289 289 289 289 288 287 287 287 285 284 283 282 282 282 281 281 280 278 277 275 274 273 271 270 269 268 268
310 309 308 307 307 305 304 302 300 297 294 292 291 290 290 290 290 291 291 290 289 288 287 287 287 287 286 284 283 282 282 282 281 280 278 276 275 274 273 272 270 270 269 269
314 312 311 309 308 307 306 304 301 299 296 295 294 294 293 293 293 292 292 290 290 289 288 287 287 287 286 285 284 283 282 282 281 280 278 276 275 274 272 271 270 270 270 269
315 314 313 310 308 308 307 306 304 302 299 296 295 295 294 294 294 293 293 292 291 290 290 289 288 287 286 286 285 284 282 281 280 280 279 277 275 274 273 272 271 271 270 269
317 316 315 313 311 309 308 307 305 304 301 299 298 297 296 295 295 294 293 293 292 292 292 291 289 288 287 286 286 285 284 283 282 281 279 278 277 275 274 273 273 272 271 271
317 316 316 314 312 311 310 309 308 306 304 302 299 298 297 296 296 295 294 293 293 293 293 292 290 289 288 287 287 286 286 285 284 282 281 280 279 278 276 275 275 274 273 272
317 316 316 315 313 313 312 312 312 310 308 306 303 300 300 299 298 297 296 295 295 294 294 293 291 289 288 288 287 286 286 286 285 284 282 281 280 279 279 277 276 275 275 274
318 317 316 315 314 313 313 313 312 312 311 308 305 303 302 301 300 299 298 298 297 296 295 295 293 292 290 289 288 287 287 287 285 285 285 283 281 280 280 279 279 277 276 275
318 317 317 317 316 315 314 313 313 313 312 310 307 305 304 302 301 300 299 298 298 297 296 296 295 293 292 291 290 288 287 287 287 286 286 284 282 280 280 280 279 279 278 276
Height
5606 5603 5599 5597 5594 5590 5586 5584 5580 5579 5576 5573 5568 5565 5562 5559 5556 5553 5551 5549 5548 5546 5544 5543 5542 5541 5540 5539 5538 5539 5539 5540 5541 5542 5543 5545 5547 5550 5552 5555 5558 5562 5565 5568
5598 5594 5590 5588 5586 5582 5578 5575 5572 5569 5567 5564 5560 5557 5553 5550 5548 5546 5543 5541 5540 5538 5536 5535 5534 5533 5532 5531 5530 5529 5530 5530 5530 5531 5533 5535 5536 5538 5541 5544 5547 5550 5554 5557
5587 5584 5581 5580 5578 5574 5570 5567 5564 5561 5559 5555 5552 5549 5545 5543 5540 5538 5535 5533 5532 5530 5529 5527 5526 5524 5523 5522 5521 5521 5521 5521 5521 5521 5523 5523 5525 5528 5530 5533 5535 5538 5542 5545
5577 5575 5572 5573 5568 5565 5561 5559 5555 5552 5549 5546 5543 5540 5537 5534 5532 5529 5527 5526 5524 5522 5521 5519 5517 5516 5515 5513 5512 5512 5511 5511 5511 5511 5513 5513 5515 5517 5520 5522 5524 5527 5530 5533
5567 5564 5562 5563 5559 5555 5552 5550 5546 5542 5540 5537 5534 5531 5529 5526 5523 5521 5519 5517 5516 5514 5512 5511 5509 5508 5506 5505 5504 5503 5502 5502 5501 5502 5503 5504 5505 5507 5509 5511 5513 5515 5518 5521
5558 5555 5553 5554 5550 5545 5543 5540 5537 5533 5531 5528 5525 5523 5522 5518 5515 5513 5511 5509 5507 5506 5504 5502 5501 5499 5498 5496 5495 5494 5493 5492 5492 5492 5493 5494 5495 5496 5498 5500 5502 5504 5506 5509
5550 5546 5544 5544 5540 5536 5535 5532 5528 5525 5522 5519 5517 5514 5512 5509 5507 5505 5503 5501 5499 5497 5496 5494 5492 5491 5489 5488 5486 5485 5484 5483 5483 5483 5483 5484 5484 5486 5487 5489 5491 5493 5495 5497
5540 5537 5538 5534 5530 5528 5525 5522 5518 5516 5513 5511 5508 5506 5503 5501 5498 5496 5494 5493 5491 5489 5487 5485 5484 5482 5480 5479 5478 5477 5476 5475 5474 5474 5474 5474 5474 5475 5476 5478 5479 5481 5483 5484
5532 5531 5527 5523 5520 5518 5515 5513 5510 5507 5505 5502 5500 5498 5496 5493 5491 5488 5486 5484 5482 5481 5479 5477 5475 5474 5472 5470 5469 5468 5467 5466 5465 5465 5464 5464 5465 5465 5466 5467 5468 5470 5471 5472
5522 5520 5517 5514 5511 5508 5506 5503 5501 5499 5496 5494 5492 5490 5488 5485 5483 5480 5478 5476 5474 5472 5470 5468 5467 5465 5464 5462 5461 5459 5458 5457 5456 5455 5455 5454 5455 5455 5455 5456 5457 5457 5459 5460
5512 5511 5508 5505 5502 5499 5496 5494 5492 5490 5487 5485 5483 5481 5479 5477 5475 5472 5470 5468 5466 5464 5462 5460 5458 5457 5455 5453 5452 5451 5450 5448 5447 5446 5445 5445 5445 5445 5445 5445 5445 5446 5447 5448
5503 5501 5498 5496 5492 5490 5487 5485 5483 5481 5479 5477 5475 5473 5471 5469 5466 5464 5462 5460 5458 5456 5453 5451 5450 5448 5446 5445 5443 5442 5440 5439 5438 5436 5436 5435 5435 5435 5434 5435 5435 5435 5435 5437
5494 5491 5488 5485 5483 5480 5478 5475 5473 5471 5470 5468 5466 5464 5462 5460 5458 5455 5453 5451 5449 5447 5445 5443 5441 5439 5438 5436 5434 5433 5431 5429 5428 5426 5425 5425 5425 5424 5425 5425 5424 5425 5425 5425
5484 5482 5479 5476 5474 5471 5468 5466 5464 5462 5460 5459 5457 5455 5453 5451 5449 5447 5445 5443 5440 5438 5436 5435 5433 5431 5429 5427 5425 5424 5422 5420 5418 5417 5416 5415 5414 5414 5414 5414 5414 5414 5415 5415
5476 5473 5470 5467 5464 5462 5459 5457 5455 5453 5452 5450 5448 5446 5444 5442 5440 5438 5436 5434 5432 5429 5427 5426 5424 5422 5420 5418 5416 5415 5413 5411 5409 5408 5406 5405 5404 5404 5403 5403 5404 5404 5404 5404
5468 5464 5461 5459 5456 5453 5450 5448 5447 5445 5443 5441 5439 5437 5435 5433 5431 5429 5427 5425 5423 5421 5419 5417 5415 5413 5411 5409 5407 5405 5404 5402 5400 5399 5397 5396 5395 5394 5394 5393 5394 5394 5394 5394
5460 5457 5454 5451 5448 5445 5442 5440 5438 5436 5434 5432 5430 5428 5426 5424 5422 5420 5418 5416 5414 5412 5409 5407 5406 5404 5402 5400 5398 5396 5395 5393 5391 5390 5388 5387 5386 5385 5384 5384 5384 5384 5384 5384
5452 5449 5446 5443 5440 5437 5434 5432 5429 5427 5425 5423 5421 5419 5417 5415 5413 5411 5409 5407 5405 5402 5400 5398 5396 5394 5392 5391 5389 5387 5385 5384 5382 5380 5379 5377 5376 5375 5375 5374 5374 5374 5374 5374
5445 5442 5439 5436 5433 5430 5427 5424 5422 5419 5417 5415 5413 5411 5409 5407 5405 5403 5401 5398 5396 5394 5392 5389 5387 5385 5383 5381 5379 5378 5376 5374 5372 5371 5369 5368 5367 5366 5365 5365 5364 5364 5364 5364
5438 5435 5432 5429 5426 5423 5420 5417 5414 5412 5409 5407 5405 5403 5401 5399 5396 5394 5392 5389 5387 5385 5382 5380 5378 5376 5374 5372 5370 5368 5366 5364 5363 5361 5359 5358 5357 5356 5355 5355 5354 5354 5354 5354
5432 5429 5426 5423 5419 5416 5413 5410 5407 5405 5402 5400 5397 5395 5393 5391 5388 5386 5383 5381 5378 5376 5373 5371 5369 5367 5364 5362 5360 5358 5356 5354 5353 5351 5349 5348 5347 5346 5345 5345 5344 5344 5344 5343
5427 5423 5420 5416 5413 5410 5407 5403 5400 5397 5395 5392 5390 5387 5385 5383 5380 5377 5375 5372 5370 5367 5365 5362 5360 5358 5355 5353 5351 5348 5347 5345 5343 5341 5340 5338 5337 5336 5336 5335 5335 5334 5334 5333
5421 5417 5413 5410 5406 5403 5400 5397 5393 5390 5388 5385 5382 5379 5377 5374 5371 5369 5367 5364 5361 5359 5356 5353 5351 5348 5346 5344 5342 5340 5338 5336 5334 5332 5331 5329 5328 5327 5326 5326 5325 5324 5324 5323
5415 5411 5407 5404 5400 5397 5393 5390 5387 5383 5380 5377 5374 5371 5369 5366 5363 5361 5358 5356 5353 5350 5348 5345 5343 5340 5338 5336 5334 5331 5329 5327 5326 5324 5322 5321 5320 5319 5318 5317 5316 5315 5314 5314
5409 5405 5401 5397 5394 5390 5387 5383 5380 5376 5373 5370 5366 5364 5361 5358 5356 5353 5350 5348 5345 5342 5340 5337 5335 5332 5330 5328 5326 5324 5322 5319 5318 5316 5315 5313 5312 5311 5310 5308 5307 5307 5306 5305
5402 5398 5395 5391 5387 5384 5380 5376 5373 5369 5366 5363 5359 5356 5354 5351 5348 5345 5343 5340 5338 5335 5332 5330 5327 5325 5322 5320 5318 5316 5314 5312 5310 5308 5307 5305 5304 5303 5302 5301 5300 5299 5298 5297
5396 5392 5388 5384 5380 5377 5373 5369 5366 5362 5359 5356 5353 5350 5347 5344 5341 5338 5336 5333 5330 5328 5325 5323 5320 5317 5315 5313 5311 5309 5307 5305 5303 5301 5300 5298 5296 5295 5294 5293 5292 5291 5290 5289